New Roads False River Regiona, LA

11:34 AM CST on November 18, 2017 (GMT -0600)
False River

Weather History for KHZR - December, 2013

Change the Weather History Date:

Tuesday, December 10, 2013

  Actual Average (KBTR) Record (KBTR)
Temperature  
Mean Temperature 41 °F -  
Max Temperature 49 °F 63 °F 82 °F (1943)
Min Temperature 33 °F 42 °F 23 °F (1937)
Degree Days  
Heating Degree Days 24    
Moisture  
Dew Point 33 °F    
Average Humidity 78    
Maximum Humidity 95    
Minimum Humidity 52    
Precipitation  
Precipitation 0.00 in - - ()
Sea Level Pressure  
Sea Level Pressure 30.34 in    
Wind  
Wind Speed 12 mph (North)    
Max Wind Speed 23 mph    
Max Gust Speed 34 mph    
Visibility 10 miles    
Events Rain    
Averages and records for this station are not official NWS values.
T = Trace of Precipitation, MM = Missing Value Source: NWS Daily Summary

Daily Weather History Graph

Daily Weather History Graph

Search for Another Location

Airport or City:

Trip Planner

Search our weather history database for the weather conditions in past years. The results will help you decide how hot, cold, wet, or windy it might be!

Date:

Astronomy

Dec. 10, 2013 Rise Set
Actual Time 6:52 AM CST 5:04 PM CST
Civil Twilight 6:26 AM CST 5:31 PM CST
Nautical Twilight 5:56 AM CST 6:01 PM CST
Astronomical Twilight 5:26 AM CST 6:30 PM CST
Moon 12:45 PM CST (12/10) 12:34 AM CST (12/10)
Length of Visible Light 11h 05m
Length of Day
10h 12m
Waxing Gibbous, 62% of the Moon is Illuminated
Dec 10
Waxing Gibbous
Dec 17
Full
Dec 25
Last Quarter
Jan 1
New
Jan 7
First Quarter

Hourly Weather History & Observations

Time (CST) Temp. Windchill Dew Point Humidity Pressure Visibility Wind Dir Wind Speed Gust Speed Precip Events Conditions
12:15 AM 37.9 °F 29.6 °F 36.7 °F 95% 30.21 in 10.0 mi NNW 13.8 mph 17.3 mph N/A   Overcast
12:35 AM 37.4 °F 28.5 °F 35.8 °F 94% 30.22 in 7.0 mi NNW 15.0 mph 21.9 mph N/A   Overcast
12:55 AM 37.4 °F 29.8 °F 36.1 °F 95% 30.23 in 7.0 mi NNW 11.5 mph - N/A Rain Light Rain
1:15 AM 37.4 °F 30.8 °F 36.1 °F 95% 30.22 in 7.0 mi NNW 9.2 mph - N/A   Overcast
1:35 AM 37.4 °F 29.3 °F 36.1 °F 95% 30.23 in 10.0 mi NNW 12.7 mph 16.1 mph N/A   Overcast
1:55 AM 37.0 °F 27.7 °F 35.6 °F 95% 30.24 in 10.0 mi NNW 16.1 mph 25.3 mph N/A   Overcast
2:15 AM 37.0 °F 28.5 °F 35.6 °F 95% 30.26 in 10.0 mi NNW 13.8 mph 21.9 mph N/A   Overcast
2:35 AM 36.9 °F 27.5 °F 35.1 °F 93% 30.26 in 10.0 mi NNW 16.1 mph 20.7 mph N/A   Overcast
2:55 AM 36.9 °F 27.5 °F 35.6 °F 95% 30.26 in 10.0 mi NNW 16.1 mph 20.7 mph N/A   Overcast
3:15 AM 36.7 °F 27.6 °F 35.1 °F 94% 30.26 in 10.0 mi NNW 15.0 mph 21.9 mph N/A   Overcast
3:35 AM 36.5 °F 29.7 °F 35.1 °F 95% 30.26 in 10.0 mi NNW 9.2 mph - N/A   Overcast
4:35 AM 36.3 °F 28.0 °F 33.8 °F 91% 30.28 in 10.0 mi NNW 12.7 mph 21.9 mph N/A   Overcast
4:55 AM 36.1 °F 27.3 °F 34.0 °F 92% 30.30 in 10.0 mi NNW 13.8 mph 20.7 mph N/A   Overcast
5:15 AM 36.1 °F 26.5 °F 33.6 °F 91% 30.31 in 10.0 mi NNW 16.1 mph 25.3 mph N/A   Overcast
5:35 AM 35.8 °F 25.4 °F 33.3 °F 91% 30.32 in 10.0 mi NNW 18.4 mph 26.5 mph N/A   Overcast
5:55 AM 35.6 °F 24.0 °F 32.4 °F 88% 30.33 in 10.0 mi NNW 23.0 mph 31.1 mph N/A   Overcast
6:15 AM 35.6 °F 25.2 °F 32.2 °F 87% 30.34 in 10.0 mi NNW 18.4 mph 26.5 mph N/A   Overcast
6:35 AM 35.6 °F 26.2 °F 32.0 °F 87% 30.36 in 10.0 mi NNW 15.0 mph 29.9 mph N/A   Overcast
6:55 AM 35.6 °F 26.2 °F 32.2 °F 87% 30.36 in 10.0 mi NNW 15.0 mph 23.0 mph N/A   Overcast
7:15 AM 35.6 °F 25.2 °F 31.1 °F 84% 30.36 in 10.0 mi North 18.4 mph 34.5 mph N/A   Overcast
7:35 AM 35.6 °F 24.2 °F 30.9 °F 83% 30.38 in 10.0 mi NNW 21.9 mph 34.5 mph N/A   Overcast
7:55 AM 35.6 °F 25.9 °F 30.7 °F 82% 30.39 in 10.0 mi North 16.1 mph 24.2 mph N/A   Overcast
8:15 AM 35.6 °F 25.9 °F 30.7 °F 82% 30.40 in 10.0 mi NNW 16.1 mph 21.9 mph N/A   Overcast
8:35 AM 35.6 °F 25.2 °F 30.2 °F 81% 30.41 in 10.0 mi North 18.4 mph 23.0 mph N/A   Overcast
8:55 AM 35.6 °F 26.6 °F 30.6 °F 82% 30.41 in 10.0 mi North 13.8 mph 18.4 mph N/A   Overcast
9:15 AM 36.1 °F 26.2 °F 30.9 °F 81% 30.41 in 10.0 mi North 17.3 mph 24.2 mph N/A   Overcast
9:35 AM 36.7 °F 27.6 °F 31.6 °F 82% 30.41 in 10.0 mi North 15.0 mph - N/A   Overcast
9:55 AM 37.0 °F 29.8 °F 32.0 °F 82% 30.41 in 10.0 mi North 10.4 mph - N/A   Overcast
10:15 AM 37.6 °F 30.5 °F 32.0 °F 80% 30.41 in 10.0 mi North 10.4 mph - N/A   Overcast
10:35 AM 38.5 °F 32.1 °F 32.2 °F 78% 30.40 in 10.0 mi NNW 9.2 mph - N/A   Overcast
10:55 AM 39.7 °F 33.2 °F 32.0 °F 74% 30.40 in 10.0 mi NNW 10.4 mph - N/A   Mostly Cloudy
11:15 AM 41.0 °F 34.7 °F 32.4 °F 71% 30.40 in 10.0 mi North 10.4 mph - N/A   Scattered Clouds
11:35 AM 42.1 °F 35.2 °F 32.4 °F 68% 30.39 in 10.0 mi North 12.7 mph 19.6 mph N/A   Clear
11:55 AM 42.4 °F 37.0 °F 32.4 °F 68% 30.38 in 10.0 mi North 9.2 mph - N/A   Clear
12:15 PM 44.2 °F 38.4 °F 32.5 °F 63% 30.37 in 10.0 mi North 11.5 mph 16.1 mph N/A   Clear
12:35 PM 44.8 °F 39.9 °F 32.4 °F 62% 30.36 in 10.0 mi North 9.2 mph - N/A   Clear
12:55 PM 46.0 °F 40.2 °F 32.7 °F 60% 30.34 in 10.0 mi NNW 12.7 mph 16.1 mph N/A   Clear
1:15 PM 47.3 °F - 33.3 °F 58% 30.33 in 10.0 mi NNW 10.4 mph - N/A   Clear
1:35 PM 47.7 °F - 33.6 °F 58% 30.33 in 10.0 mi North 11.5 mph - N/A   Clear
1:55 PM 48.4 °F - 33.1 °F 56% 30.32 in 10.0 mi North 12.7 mph - N/A   Clear
2:15 PM 48.6 °F - 32.4 °F 54% 30.32 in 10.0 mi North 11.5 mph 18.4 mph N/A   Clear
2:35 PM 49.1 °F - 32.0 °F 52% 30.32 in 10.0 mi NNE 6.9 mph - N/A   Clear
2:55 PM 49.5 °F - 32.4 °F 52% 30.32 in 10.0 mi NNE 10.4 mph - N/A   Clear
3:15 PM 49.3 °F - 32.4 °F 52% 30.32 in 10.0 mi NNE 12.7 mph 16.1 mph N/A   Clear
3:35 PM 49.1 °F - 32.0 °F 52% 30.32 in 10.0 mi NNE 6.9 mph - N/A   Clear
3:55 PM 48.6 °F - 32.0 °F 53% 30.33 in 10.0 mi North 11.5 mph - N/A   Clear
4:15 PM 48.4 °F - 32.2 °F 54% 30.33 in 10.0 mi North 11.5 mph - N/A   Clear
4:35 PM 47.3 °F - 32.2 °F 56% 30.33 in 10.0 mi North 9.2 mph - N/A   Clear
4:55 PM 46.2 °F 41.2 °F 32.2 °F 58% 30.33 in 10.0 mi North 10.4 mph - N/A   Clear
5:15 PM 44.2 °F 40.3 °F 32.4 °F 63% 30.34 in 10.0 mi NNE 6.9 mph - N/A   Clear
5:35 PM 42.8 °F 39.3 °F 32.4 °F 67% 30.34 in 10.0 mi NNE 5.8 mph - N/A   Clear
5:55 PM 42.1 °F 37.7 °F 32.5 °F 69% 30.35 in 10.0 mi North 6.9 mph - N/A   Clear
6:15 PM 41.5 °F 37.8 °F 32.4 °F 70% 30.35 in 10.0 mi North 5.8 mph - N/A   Clear
6:35 PM 40.6 °F 37.5 °F 33.8 °F 77% 30.36 in 10.0 mi NNW 4.6 mph - N/A   Clear
6:55 PM 40.1 °F 36.9 °F 33.3 °F 77% 30.36 in 10.0 mi North 4.6 mph - N/A   Clear
7:15 PM 39.4 °F 36.1 °F 33.6 °F 80% 30.36 in 10.0 mi North 4.6 mph - N/A   Clear
7:35 PM 38.3 °F 35.9 °F 32.9 °F 81% 30.36 in 10.0 mi North 3.5 mph - N/A   Clear
7:55 PM 38.7 °F 36.3 °F 32.7 °F 79% 30.36 in 10.0 mi North 3.5 mph - N/A   Clear
8:15 PM 38.7 °F 36.3 °F 32.9 °F 80% 30.37 in 10.0 mi North 3.5 mph - N/A   Clear
8:35 PM 38.3 °F 35.9 °F 33.1 °F 81% 30.37 in 10.0 mi North 3.5 mph - N/A   Clear
8:55 PM 37.6 °F 34.0 °F 32.0 °F 80% 30.37 in 10.0 mi North 4.6 mph - N/A   Clear
9:15 PM 36.1 °F - 33.1 °F 89% 30.37 in 10.0 mi Calm Calm - N/A   Clear
9:35 PM 36.7 °F 34.1 °F 33.3 °F 87% 30.37 in 10.0 mi North 3.5 mph - N/A   Clear
9:55 PM 36.3 °F 32.5 °F 33.1 °F 88% 30.37 in 10.0 mi NNE 4.6 mph - N/A   Clear
10:15 PM 35.2 °F 30.3 °F 32.0 °F 88% 30.38 in 10.0 mi North 5.8 mph - N/A   Clear
10:35 PM 34.2 °F - 32.0 °F 92% 30.38 in 10.0 mi Calm Calm - N/A   Clear
10:55 PM 33.8 °F 29.6 °F 32.0 °F 93% 30.38 in 10.0 mi North 4.6 mph - N/A   Clear
11:15 PM 34.0 °F 28.8 °F 31.6 °F 91% 30.38 in 10.0 mi North 5.8 mph - N/A   Clear
11:35 PM 33.8 °F 28.6 °F 31.8 °F 92% 30.37 in 10.0 mi North 5.8 mph - N/A   Clear
11:55 PM 33.8 °F 29.6 °F 31.1 °F 90% 30.37 in 10.0 mi North 4.6 mph - N/A   Clear